Location: Zagreb
(45.8000°N, 16.0000°E)
Time: 21:53:46
(UTC+02:00)

Tiros 1 despin weight - Pass Details

Date: 22 July 2024
Orbit: 563 x 601 km, 48.2° (Epoch: 16 June)

Event Time Altitude Azimuth Distance (km) Brightness Sun altitude
Exits shadow 03:15:58 27° 257° (WSW) 1,106 ? -17.4°
Maximum altitude 03:18:13 84° 343° (NNW) 583 ? -17.2°
Drops below altitude 10° 03:22:35 10° 73° (ENE) 1,899 ? -16.8°
Sets 03:24:53 0° 74° (ENE) 2,809 ? -16.5°
